| time (UTC) | temp F | wind direction | speed knots | gust knots | rain 1hr in | rain 24hr in | rain mn in | humidity % | barometer mb |
| 20260507224004 | 51 | 1 | 0.0 | 1.7 | 0.00 | 0.00 | 0.00 | 82 | 1016.3 |
| 20260507223004 | 52 | 0 | 0.0 | 0.0 | 0.00 | 0.00 | 0.00 | 82 | 1016.3 |
| 20260507222005 | 52 | 0 | 0.0 | 0.0 | 0.00 | 0.00 | 0.00 | 82 | 1016.4 |
| 20260507221005 | 52 | 0 | 0.0 | 0.0 | 0.00 | 0.00 | 0.00 | 82 | 1016.4 |
| 20260507220005 | 52 | 22 | 0.0 | 1.7 | 0.00 | 0.00 | 0.00 | 82 | 1016.3 |
| 20260507215005 | 52 | 1 | 0.0 | 1.7 | 0.00 | 0.00 | 0.00 | 82 | 1016.3 |
| 20260507214005 | 52 | 0 | 0.0 | 0.0 | 0.00 | 0.00 | 0.00 | 82 | 1016.3 |
| 20260507213005 | 53 | 1 | 0.0 | 1.7 | 0.00 | 0.00 | 0.00 | 82 | 1016.3 |
| 20260507212004 | 53 | 1 | 0.0 | 1.7 | 0.00 | 0.00 | 0.00 | 82 | 1016.5 |
| 20260507211004 | 53 | 352 | 0.0 | 1.7 | 0.00 | 0.00 | 0.00 | 82 | 1016.4 |
| 20260507204004 | 53 | 359 | 0.0 | 1.7 | 0.00 | 0.00 | 0.00 | 81 | 1016.2 |
| 20260507203004 | 53 | 349 | 0.0 | 1.7 | 0.00 | 0.00 | 0.00 | 81 | 1016.0 |
| 20260507201005 | 53 | 349 | 0.0 | 1.7 | 0.00 | 0.00 | 0.00 | 81 | 1016.0 |
| 20260507200005 | 53 | 350 | 0.9 | 1.7 | 0.00 | 0.00 | 0.00 | 81 | 1015.9 |
| 20260507195005 | 53 | 346 | 0.0 | 3.5 | 0.00 | 0.00 | 0.00 | 81 | 1015.7 |
| 20260507194004 | 53 | 356 | 0.9 | 1.7 | 0.00 | 0.00 | 0.00 | 81 | 1015.7 |
| 20260507193005 | 53 | 357 | 0.0 | 1.7 | 0.00 | 0.00 | 0.00 | 81 | 1015.7 |
| 20260507192005 | 53 | 350 | 0.9 | 1.7 | 0.00 | 0.00 | 0.00 | 81 | 1015.6 |
| 20260507191004 | 53 | 342 | 0.0 | 1.7 | 0.00 | 0.00 | 0.00 | 81 | 1015.8 |
| 20260507184005 | 53 | 340 | 0.0 | 3.5 | 0.00 | 0.00 | 0.00 | 80 | 1015.4 |
| 20260507183004 | 53 | 341 | 1.7 | 1.7 | 0.00 | 0.00 | 0.00 | 80 | 1015.5 |
| 20260507182011 | 53 | 354 | 0.0 | 1.7 | 0.00 | 0.00 | 0.00 | 80 | 1015.3 |
| 20260507181005 | 53 | 344 | 0.9 | 1.7 | 0.00 | 0.00 | 0.00 | 80 | 1015.5 |
| 20260507180005 | 53 | 351 | 0.0 | 1.7 | 0.00 | 0.00 | 0.00 | 80 | 1015.4 |
| 20260507175005 | 53 | 342 | 0.9 | 3.5 | 0.00 | 0.00 | 0.00 | 80 | 1015.5 |
| 20260507174005 | 53 | 337 | 1.7 | 5.2 | 0.00 | 0.00 | 0.00 | 80 | 1015.6 |
| 20260507173005 | 53 | 337 | 1.7 | 5.2 | 0.00 | 0.00 | 0.00 | 79 | 1015.3 |
| 20260507172005 | 53 | 342 | 1.7 | 3.5 | 0.00 | 0.00 | 0.00 | 78 | 1015.2 |
| 20260507171005 | 53 | 341 | 1.7 | 3.5 | 0.00 | 0.00 | 0.00 | 78 | 1015.4 |
| 20260507170005 | 53 | 349 | 1.7 | 3.5 | 0.00 | 0.00 | 0.00 | 78 | 1015.3 |
| 20260507165005 | 53 | 352 | 0.9 | 3.5 | 0.00 | 0.00 | 0.00 | 78 | 1015.4 |
| 20260507163004 | 53 | 354 | 0.9 | 1.7 | 0.00 | 0.00 | 0.00 | 76 | 1015.7 |
| 20260507161004 | 53 | 358 | 1.7 | 3.5 | 0.00 | 0.00 | 0.00 | 75 | 1015.4 |
| 20260507160004 | 53 | 357 | 0.9 | 3.5 | 0.00 | 0.00 | 0.00 | 75 | 1015.5 |
| 20260507155004 | 53 | 356 | 0.0 | 1.7 | 0.00 | 0.00 | 0.00 | 75 | 1015.5 |
| 20260507154005 | 53 | 355 | 0.9 | 3.5 | 0.00 | 0.00 | 0.00 | 74 | 1015.5 |
| 20260507151004 | 54 | 352 | 0.0 | 1.7 | 0.00 | 0.00 | 0.00 | 73 | 1015.6 |
| 20260507150005 | 54 | 351 | 0.9 | 3.5 | 0.00 | 0.00 | 0.00 | 74 | 1015.5 |
| 20260507145005 | 54 | 359 | 0.9 | 1.7 | 0.00 | 0.00 | 0.00 | 74 | 1015.7 |
| 20260507144005 | 54 | 352 | 0.9 | 1.7 | 0.00 | 0.00 | 0.00 | 74 | 1015.8 |
| 20260507143005 | 53 | 355 | 0.9 | 1.7 | 0.00 | 0.00 | 0.00 | 73 | 1015.7 |
| 20260507142005 | 54 | 354 | 1.7 | 3.5 | 0.00 | 0.00 | 0.00 | 72 | 1015.7 |
| 20260507141006 | 54 | 349 | 0.9 | 3.5 | 0.00 | 0.00 | 0.00 | 71 | 1015.7 |
| 20260507140005 | 54 | 359 | 0.9 | 1.7 | 0.00 | 0.00 | 0.00 | 70 | 1015.8 |
| 20260507135004 | 54 | 348 | 0.0 | 3.5 | 0.00 | 0.00 | 0.00 | 71 | 1015.7 |
| 20260507134005 | 54 | 341 | 0.9 | 3.5 | 0.00 | 0.00 | 0.00 | 70 | 1015.9 |
| 20260507133005 | 54 | 341 | 0.0 | 3.5 | 0.00 | 0.00 | 0.00 | 70 | 1015.8 |
| 20260507132004 | 54 | 343 | 1.7 | 3.5 | 0.00 | 0.00 | 0.00 | 69 | 1015.5 |
| 20260507131004 | 54 | 348 | 0.9 | 1.7 | 0.00 | 0.00 | 0.00 | 67 | 1015.7 |
| 20260507130004 | 54 | 339 | 1.7 | 3.5 | 0.00 | 0.00 | 0.00 | 69 | 1015.7 |
| 20260507125004 | 54 | 345 | 1.7 | 3.5 | 0.00 | 0.00 | 0.00 | 68 | 1015.5 |
| 20260507124005 | 55 | 341 | 0.9 | 3.5 | 0.00 | 0.00 | 0.00 | 69 | 1015.8 |
| 20260507123004 | 55 | 346 | 0.9 | 3.5 | 0.00 | 0.00 | 0.00 | 69 | 1015.7 |
| 20260507122005 | 54 | 359 | 1.7 | 3.5 | 0.00 | 0.00 | 0.00 | 71 | 1015.6 |
| 20260507120005 | 55 | 356 | 0.9 | 3.5 | 0.00 | 0.00 | 0.00 | 71 | 1015.9 |
| 20260507115004 | 54 | 347 | 1.7 | 3.5 | 0.00 | 0.00 | 0.00 | 71 | 1015.7 |
| 20260507114004 | 54 | 355 | 1.7 | 3.5 | 0.00 | 0.00 | 0.00 | 72 | 1015.8 |
| 20260507113005 | 54 | 349 | 1.7 | 3.5 | 0.00 | 0.00 | 0.00 | 72 | 1015.6 |
| 20260507112004 | 54 | 345 | 0.9 | 3.5 | 0.00 | 0.00 | 0.00 | 71 | 1015.8 |
| 20260507111004 | 54 | 344 | 1.7 | 3.5 | 0.00 | 0.00 | 0.00 | 72 | 1015.8 |
| 20260507110005 | 54 | 339 | 0.9 | 3.5 | 0.00 | 0.00 | 0.00 | 72 | 1016.0 |
| 20260507105004 | 55 | 339 | 1.7 | 3.5 | 0.00 | 0.00 | 0.00 | 73 | 1015.8 |
| 20260507104004 | 54 | 340 | 1.7 | 3.5 | 0.00 | 0.00 | 0.00 | 72 | 1015.8 |
| 20260507103004 | 54 | 337 | 1.7 | 3.5 | 0.00 | 0.00 | 0.00 | 73 | 1016.0 |
| 20260507102006 | 54 | 344 | 1.7 | 3.5 | 0.00 | 0.00 | 0.00 | 73 | 1016.0 |
| 20260507101005 | 54 | 346 | 0.0 | 1.7 | 0.00 | 0.00 | 0.00 | 74 | 1016.0 |
| 20260507100005 | 54 | 4 | 0.9 | 1.7 | 0.00 | 0.00 | 0.00 | 74 | 1016.0 |
| 20260507095004 | 53 | 349 | 0.0 | 1.7 | 0.00 | 0.00 | 0.00 | 75 | 1015.8 |
| 20260507094005 | 53 | 338 | 1.7 | 1.7 | 0.00 | 0.00 | 0.00 | 75 | 1016.0 |
| 20260507093004 | 53 | 354 | 0.0 | 1.7 | 0.00 | 0.00 | 0.00 | 76 | 1016.1 |
| 20260507091004 | 53 | 340 | 0.9 | 3.5 | 0.00 | 0.00 | 0.00 | 77 | 1015.9 |
| 20260507090005 | 53 | 338 | 0.9 | 1.7 | 0.00 | 0.00 | 0.00 | 77 | 1016.0 |
| 20260507085004 | 53 | 344 | 0.9 | 3.5 | 0.00 | 0.00 | 0.00 | 78 | 1016.0 |
| 20260507084004 | 52 | 354 | 0.0 | 1.7 | 0.00 | 0.00 | 0.00 | 78 | 1015.7 |
| 20260507083005 | 52 | 338 | 0.0 | 1.7 | 0.00 | 0.00 | 0.00 | 79 | 1015.9 |
| 20260507082004 | 52 | 340 | 0.9 | 1.7 | 0.00 | 0.00 | 0.00 | 79 | 1015.6 |
| 20260507081004 | 52 | 347 | 0.0 | 1.7 | 0.00 | 0.00 | 0.00 | 80 | 1015.8 |
| 20260507080005 | 51 | 345 | 0.9 | 1.7 | 0.00 | 0.00 | 0.00 | 81 | 1015.7 |
| 20260507075004 | 51 | 342 | 0.0 | 1.7 | 0.00 | 0.00 | 0.00 | 82 | 1015.6 |
| 20260507074004 | 51 | 338 | 0.9 | 1.7 | 0.00 | 0.00 | 0.00 | 83 | 1015.7 |
| 20260507072004 | 50 | 340 | 0.9 | 1.7 | 0.00 | 0.00 | 0.00 | 84 | 1015.8 |
| 20260507070009 | 49 | 347 | 0.9 | 1.7 | 0.00 | 0.00 | 0.00 | 85 | 1015.5 |
| 20260507065004 | 49 | 338 | 1.7 | 1.7 | 0.00 | 0.00 | 0.00 | 85 | 1015.5 |
| 20260507063005 | 49 | 342 | 0.0 | 1.7 | 0.00 | 0.00 | 0.00 | 86 | 1015.6 |
| 20260507062005 | 48 | 340 | 0.0 | 1.7 | 0.00 | 0.00 | 0.00 | 87 | 1015.5 |
| 20260507061004 | 48 | 341 | 0.0 | 1.7 | 0.00 | 0.00 | 0.00 | 87 | 1015.3 |
| 20260507060004 | 48 | 345 | 0.0 | 1.7 | 0.00 | 0.00 | 0.00 | 88 | 1015.5 |
| 20260507054004 | 47 | 1 | 0.0 | 1.7 | 0.00 | 0.00 | 0.00 | 88 | 1015.3 |
| 20260507053007 | 47 | 354 | 0.0 | 1.7 | 0.00 | 0.00 | 0.00 | 88 | 1015.1 |
| 20260507052004 | 47 | 1 | 0.0 | 1.7 | 0.00 | 0.00 | 0.00 | 88 | 1015.3 |
| 20260507050005 | 47 | 0 | 0.0 | 0.0 | 0.00 | 0.00 | 0.00 | 88 | 1015.0 |
| 20260507045005 | 47 | 1 | 0.0 | 1.7 | 0.00 | 0.00 | 0.00 | 88 | 1015.1 |
| 20260507044004 | 47 | 341 | 0.0 | 1.7 | 0.00 | 0.00 | 0.00 | 88 | 1014.9 |
| 20260507043005 | 47 | 354 | 0.0 | 1.7 | 0.00 | 0.00 | 0.00 | 88 | 1014.9 |
| 20260507042004 | 47 | 346 | 0.0 | 1.7 | 0.00 | 0.00 | 0.00 | 87 | 1014.8 |
| 20260507040005 | 47 | 337 | 0.0 | 1.7 | 0.00 | 0.00 | 0.00 | 87 | 1014.7 |
| 20260507035004 | 47 | 350 | 0.0 | 1.7 | 0.00 | 0.00 | 0.00 | 87 | 1014.9 |
| 20260507034004 | 47 | 1 | 0.0 | 1.7 | 0.00 | 0.00 | 0.00 | 87 | 1014.7 |
| 20260507033004 | 47 | 345 | 0.0 | 1.7 | 0.00 | 0.00 | 0.00 | 87 | 1014.7 |
| 20260507032004 | 47 | 343 | 0.9 | 1.7 | 0.00 | 0.00 | 0.00 | 86 | 1014.7 |
| 20260507031004 | 47 | 347 | 1.7 | 1.7 | 0.00 | 0.00 | 0.00 | 86 | 1014.9 |
| 20260507030004 | 48 | 1 | 0.0 | 1.7 | 0.00 | 0.00 | 0.00 | 86 | 1014.6 |
| 20260507025004 | 48 | 337 | 0.0 | 1.7 | 0.00 | 0.00 | 0.00 | 85 | 1014.6 |
| 20260507023005 | 47 | 347 | 0.9 | 1.7 | 0.00 | 0.00 | 0.00 | 85 | 1014.6 |
| 20260507022005 | 48 | 346 | 0.9 | 1.7 | 0.00 | 0.00 | 0.00 | 85 | 1014.6 |
| 20260507021005 | 48 | 342 | 0.0 | 1.7 | 0.00 | 0.00 | 0.00 | 85 | 1014.2 |
| 20260507020005 | 48 | 338 | 0.0 | 1.7 | 0.00 | 0.00 | 0.00 | 85 | 1014.5 |
| 20260507015004 | 48 | 352 | 0.0 | 1.7 | 0.00 | 0.00 | 0.00 | 85 | 1014.4 |
| 20260507014005 | 48 | 341 | 0.0 | 1.7 | 0.00 | 0.00 | 0.00 | 85 | 1014.3 |
| 20260507013005 | 48 | 345 | 0.0 | 1.7 | 0.00 | 0.00 | 0.00 | 85 | 1014.3 |
| 20260507011004 | 48 | 342 | 0.0 | 1.7 | 0.00 | 0.00 | 0.00 | 85 | 1014.3 |
| 20260507010004 | 48 | 350 | 0.0 | 1.7 | 0.00 | 0.00 | 0.00 | 85 | 1014.3 |
| 20260507005005 | 48 | 339 | 0.0 | 1.7 | 0.00 | 0.00 | 0.00 | 85 | 1014.4 |
| 20260507004012 | 48 | 345 | 0.0 | 1.7 | 0.00 | 0.00 | 0.00 | 85 | 1014.2 |
| 20260507002004 | 48 | 342 | 0.0 | 1.7 | 0.00 | 0.00 | 0.00 | 85 | 1014.4 |
| 20260507001004 | 48 | 344 | 0.0 | 1.7 | 0.00 | 0.00 | 0.00 | 85 | 1014.4 |
| 20260506235004 | 49 | 0 | 0.0 | 0.0 | 0.00 | 0.00 | 0.00 | 84 | 1014.5 |
| 20260506234004 | 49 | 0 | 0.0 | 0.0 | 0.00 | 0.00 | 0.00 | 84 | 1014.3 |
| 20260506233005 | 49 | 0 | 0.0 | 0.0 | 0.00 | 0.00 | 0.00 | 84 | 1014.2 |
| 20260506232005 | 49 | 337 | 0.0 | 1.7 | 0.00 | 0.00 | 0.00 | 84 | 1014.5 |
| 20260506231004 | 49 | 0 | 0.0 | 0.0 | 0.00 | 0.00 | 0.00 | 84 | 1014.4 |
| 20260506225005 | 49 | 1 | 0.0 | 1.7 | 0.00 | 0.00 | 0.00 | 85 | 1014.3 |